{"data":{"norad_id":26605,"epoch":"2026-09-19T15:13:32.723328Z","epoch_age_seconds":86463,"freshness":"FRESH","line1":"1 26605U 00071A   26262.63440652  .00000019  00000+0  00000+0 0  9993","line2":"2 26605  55.6834  91.2244 0174558 267.0614  97.0546  2.00561456189413","mean_motion":2.00561456,"eccentricity":0.0174558,"inclination_deg":55.6834,"raan_deg":91.2244,"arg_perigee_deg":267.0614,"mean_anomaly_deg":97.0546,"bstar":0,"rev_number":18941,"period_min":717.98441670667,"perigee_km":19718.765027186,"apogee_km":20646.035886668,"semimajor_km":26560.537456927,"source":"CELESTRAK","updated_at":"2026-09-20T09:00:13.576122Z"}}